www.pogodaiklimat.ru
ПОГОДА в Глазго
Время
и дата
04:35 15.07
04:55 15.07
05:15 15.07
05:35 15.07
05:55 15.07
06:15 15.07
06:35 15.07
06:55 15.07
07:15 15.07
07:35 15.07
07:55 15.07
08:15 15.07
08:35 15.07
08:55 15.07
09:15 15.07
09:35 15.07
09:55 15.07
10:15 15.07
10:35 15.07
10:55 15.07
11:15 15.07
11:35 15.07
11:55 15.07
12:15 15.07
12:35 15.07
12:55 15.07
13:15 15.07
13:35 15.07
13:55 15.07
14:15 15.07
14:35 15.07
14:55 15.07
15:15 15.07
15:35 15.07
15:55 15.07
16:15 15.07
16:35 15.07
16:55 15.07
17:15 15.07
17:35 15.07
17:55 15.07
18:15 15.07
18:35 15.07
18:55 15.07
19:15 15.07
19:35 15.07
19:55 15.07
20:15 15.07
Ветер
(напр.,м/с)
Видим. Явления Облачность Т
(С)
Тd
(С)
f
(%)
Тe
(С)
Тes
(С)
Комфортность P
(гПа)
Po
(гПа)
Тmin
(С)
Tmax
(С)
R
(мм)
R24
(мм)
S
(см)
штиль 0 11 км ясно +21.8 +21.8 100 +28 +28 душно 991.1
штиль 0 6 км дымка ясно +21.7 +21.7 100 +28 +28 душно 991.1
штиль 0 8 км дымка ясно +21.9 +21.9 100 +29 +29 очень
душно
991.5
штиль 0 11 км ясно +22.5 +22.5 100 +30 +31 очень
душно
991.5
штиль 0 16 км ясно +23.7 +23.7 100 +32 +32 очень
душно
991.8 +21.5 +23.7
штиль 0 16 км ясно +24.5 +23.8 96 +33 +36 очень
душно
991.8
ЮЗ 2 16 км ясно +25.1 +23.8 93 +34 +36 очень
душно
991.8
ЮЗ 2 16 км ясно +25.4 +23.7 90 +35 +36 очень
душно
992.1
ЮЗ 2 16 км ясно +26.1 +24.0 88 +36 +41 очень
душно
992.4
З 2 16 км ясно +26.9 +24.1 85 +37 +42 очень
душно
992.1
З 2 16 км ясно +27.7 +24.1 81 +39 +43 очень
душно
991.8
ЮЗ 2 16 км ясно +28.4 +24.4 79 +40 +49 очень
душно
991.5
ЮЗ 2 16 км ясно +28.7 +24.3 77 +40 +49 очень
душно
991.1
ЮЗ 2 16 км ясно +29.4 +24.6 75 +42 +51 опасность
перегрева
991.1
Ю 3 16 км ясно +29.4 +24.3 74 +41 +52 опасность
перегрева
991.1
Ю 4 16 км ясно +29.9 +24.5 73 +42 +51 опасность
перегрева
991.1
ЮЗ 4 16 км 5/5 750 м +30.0 +24.4 72 +42 +47 опасность
перегрева
990.8
ЮЗ 4 16 км 5/5 810 м +30.4 +24.4 70 +42 +48 опасность
перегрева
990.8
ЮЗ 4 16 км ясно +30.8 +24.6 70 +44 +56 опасность
перегрева
990.8
ЮЗ 3 16 км ясно +30.8 +24.1 68 +43 +57 опасность
перегрева
990.5
ЮЗ 4
{7}
16 км 5/5 960 м +31.5 +24.0 65 +43 +50 опасность
перегрева
990.5
ЮЗ 4
{7}
16 км 5/5 1020 м +31.6 +24.0 64 +43 +50 опасность
перегрева
990.5
ЮЗ 4 16 км ясно +31.7 +23.9 63 +43 +57 опасность
перегрева
990.1 +23.7 +31.7
ЮЗ 5 16 км ясно +32.1 +23.7 61 +43 +54 опасность
перегрева
990.1
ЮЗ 5 16 км ясно +32.1 +23.5 60 +43 +54 опасность
перегрева
989.8
ЮЗ 5 16 км 5/5 1230 м +32.5 +23.4 59 +43 +49 опасность
перегрева
989.5
ЮЗ 5 16 км 5/5 1230 м +32.5 +23.6 60 +44 +49 опасность
перегрева
989.5
З 3 16 км 8/8 1260 м +32.9 +24.1 60 +45 +48 очень
душно
989.1
ЮЗ 4 16 км 5/5 1260 м +32.5 +23.4 59 +43 +50 опасность
перегрева
989.1
З 2 16 км 5/5 1320 м +33.1 +23.4 57 +44 +52 опасность
перегрева
988.5
З 4 16 км 5/5 1380 м +32.9 +23.3 57 +43 +49 опасность
перегрева
988.5
З 4 16 км ясно +32.9 +23.1 56 +43 +54 опасность
перегрева
988.2
З 3 16 км ясно +32.7 +23.4 58 +43 +53 опасность
перегрева
987.8
З 3 16 км ясно +33.0 +23.5 58 +44 +54 опасность
перегрева
987.8
ЮЗ 4 16 км 5/5 1410 м +32.9 +23.4 57 +43 +47 опасность
перегрева
987.8
ЮЗ 3 16 км 5/5 1410 м +32.6 +23.2 58 +43 +46 опасность
перегрева
987.5
З 4 16 км ясно +32.7 +23.6 59 +44 +48 опасность
перегрева
987.5
ЮЗ 4 16 км ясно +32.4 +23.2 58 +43 +47 опасность
перегрева
987.5
З 3 16 км ясно +32.1 +23.1 59 +42 +45 опасность
перегрева
987.5
ЮЗ 2 16 км ясно +31.8 +23.6 62 +43 +46 опасность
перегрева
987.2
штиль 0 16 км ясно +31.2 +24.1 66 +43 +47 опасность
перегрева
987.5 +31.2 +33.1
штиль 0 16 км ясно +30.6 +24.6 70 +43 +44 опасность
перегрева
987.5
штиль 0 16 км ясно +29.4 +24.2 74 +41 +42 опасность
перегрева
987.5
штиль 0 16 км ясно +27.9 +25.0 84 +40 +41 очень
душно
987.5
штиль 0 16 км ясно +26.9 +24.5 87 +38 +38 очень
душно
987.8
штиль 0 16 км ясно +26.1 +24.7 92 +37 +37 очень
душно
987.5
штиль 0 16 км ясно +26.0 +24.9 94 +37 +37 очень
душно
987.5
штиль 0 16 км ясно +25.8 +24.8 94 +37 +37 очень
душно
987.5
Местоположение метеостанции Glasgow Municipal Airport: широта 37.0317 долгота -85.9536 высота над уровнем моря 218 м.
В архиве по умолчанию представлена погода в Глазго за последние 1-2 суток. Обновление информации о фактической погоде в базе происходит ежечасно! Архивные данные за месяц целиком и за предыдущие месяцы Вы можете получить, выбрав интересующий диапазон дат из раскрывающегося списка и нажав кнопку "Ввод!".
Внимание! Архив погоды МЕТАР в базе сайта по станциям, не включенным в климатический монитор, хранится не более 60 дней. Нет смысла пытаться выбрать более раннюю дату.
*Определитесь, кто Вы:
Внимание! Время в таблицах - местное (без учета летнего времени). Для получения всемирного времени необходимо вычесть поправку, которая равна -6 ч.
Смотрите также архив погоды в соседних городах и на ближайших метеорологических станциях:
Партнеры нашего сайта:      
Пояснения к столбцам:
  • Ветер - указаны скорость ветра в м/с - средняя за 10 мин, порывы в срок и между сроками (в фигурных скобках) и направление, откуда дует ветер: С - северный,
  • СВ - северо-восточный, В - восточный, ЮВ - юго-восточный, Ю - южный, ЮЗ - юго-западный, З - западный, СЗ - северо-западный.
  • Видимость - горизонтальная дальность видимости в метрах или километрах. При видимости от 1 до 10 км при отсутствии осадков обычно наблюдается дымка, при ухудшении видимости до 1 км и менее - туман. В сухую погоду видимость может ухудшаться дымом, пылью или мглою.
  • Явления - указаны атмосферные явления, наблюдавшиеся в срок или в последний час перед сроком; фигурными скобками обозначены явления, наблюдавшиеся между сроками (за 1-3 часа до срока); квадратными скобками обозначены град или гололедные отложения с указанием их диаметра в мм.
  • Облачность - указаны через наклонную черту общая и нижняя облачность в баллах и высота нижней границы облаков в метрах; квадратными скобками обозначены формы облаков: Ci - перистые, Cs - перисто-слоистые, Cc - перисто-кучевые, Ac - высококучевые, As - высокослоистые, Sc - слоисто-кучевые, Ns - слоисто-дождевые, Cu - кучевые, Cb - кучево-дождевые. Подробнее классификацию облаков см. в Атласе облаков (PDF).
  • T - Температура воздуха - температура, измеренная на высоте 2 м над землей.
  • Td - Температура точки росы - температура, при понижении до которой содержащийся в воздухе водяной пар достигнет насыщения.
  • f - Относительная влажность воздуха - влажноcть воздуха, измеренная на высоте 2 м над землей.
  • Te - Эффективная температура - температура, которую ощущает одетый по сезону человек в тени. Характеристика душности погоды. При расчете учитывается влияние влажности воздуха и скорости ветра на теплоощущения человека.
  • Tes - Эффективная температура на солнце - температура, которую ощущает человек, с поправкой на солнечный нагрев. Характеристика знойности погоды. Зависит от высоты солнца над горизонтом, облачности и скорости ветра. Ночью, в пасмурную погоду, а также при ветре 12 м/с и более поправка равна нулю.
  • P - Атмосферное давление - приведенное к уровню моря атмосферное давление.
  • Po - Атмосферное давление - измеренное на уровне метеостанции атмосферное давление.
  • Tmin - Минимальная температура - минимум температуры воздуха на высоте 2 м над землей.
  • Tmax - Максимальная температура - максимум температуры воздуха на высоте 2 м над землей.
  • R - Количество осадков - Количество выпавших осадков за период времени, мм. При наведении курсора мыши на число - период времени, за который выпало указанное количество осадков.
  • R24 - Количество осадков - Количество выпавших осадков за 24 часа, мм.
  • S - Снежный покров - Высота снежного покрова, см. При наведении курсора мыши на число - состояние снежного покрова и степень покрытия местности в баллах.